Content
SEND FEEDBACK

Daily
Averages
Monthly
Summary
United States of America

STATEN ISLAND, NEW YORK


Home > North America > United States > New York
Elevation: 152 feet     Latitude: 40 35N     Longitude: 074 09W

WEATHER
 
SELECT A DAY
Number of Records: 189,501;   Date Range: 1/1/95 - 7/20/14
 
SHARE

PRINT THIS DATA

[ ← Previous Day ]
WEATHER ALMANAC - MARCH 22, 2013
[ Next Day → ]
[ °C ]   °F
Weather ElementAverageHighLow
Temperature35.7 °F43 °F (4:51 pm)27 °F (5:51 am)
Dewpoint16 °F21 °F (9:51 pm)10 °F (1:51 am)
Humidity45.7 %63 % (5:51 am)34 % (2:51 pm)
Barometer29.81 in29.89 in (11:51 pm)29.75 in (2:51 am)
Wind Speed14.3 mph21.9 mph (2:51 pm)
Wind Gust31.1 mph (4:51 pm)
Weather ElementAverage
Visibility10 mi
Wind DirectionW (268.3 °)

Weather ElementTotal
Precipitation---
Heating Degree Days30 (Base 65)
Averaged from 23 records on March 22, 2013
WEATHER CONDITIONS BREAKOUT
WIND DIRECTION BREAKOUT
WEATHER BY HOUR - MARCH 22, 2013
[ °C ]   °F
Local TimeTemperatureDewpointHumidityBarometerVisibilityWind DirectionWind SpeedGust SpeedPrecipitationEventsConditions
1:51 AM28.9 °F10.0 °F45 %29.77 in10.0 miWest (270°)10.4 mphPartly Cloudy
2:51 AM28.9 °F10.9 °F47 %29.75 in10.0 miWest (260°)8.1 mphScattered Clouds
3:51 AM28.9 °F12.0 °F49 %29.75 in10.0 miWSW (240°)8.1 mphScattered Clouds
4:51 AM28.0 °F14.0 °F56 %29.75 in10.0 miSW (220°)6.9 mphScattered Clouds
5:51 AM27.0 °F16.0 °F63 %29.76 in10.0 miWSW (250°)8.1 mphScattered Clouds
6:51 AM28.0 °F17.1 °F63 %29.78 in10.0 miWSW (240°)8.1 mphPartly Cloudy
7:51 AM30.0 °F17.1 °F59 %29.80 in10.0 miWest (260°)9.2 mphPartly Cloudy
8:51 AM32.0 °F17.1 °F54 %29.81 in10.0 miWNW (290°)15.0 mphScattered Clouds
9:51 AM35.6 °F15.8 °F44 %29.81 in10.0 miWest (270°)15.0 mph21.9 mphScattered Clouds
10:51 AM39.0 °F16.0 °F39 %29.81 in10.0 miWest (280°)15.0 mph21.9 mphScattered Clouds
11:51 AM37.0 °F15.1 °F41 %29.81 in10.0 miWNW (290°)20.7 mph25.3 mphMostly Cloudy
12:51 PM39.9 °F15.1 °F36 %29.80 in10.0 miWNW (290°)17.3 mph28.8 mphMostly Cloudy
1:51 PM41.0 °F15.1 °F35 %29.79 in10.0 miWNW (300°)17.3 mph24.2 mphMostly Cloudy
2:51 PM42.1 °F15.1 °F34 %29.78 in10.0 miWest (280°)21.9 mph28.8 mphOvercast
3:51 PM42.1 °F16.0 °F35 %29.79 in10.0 miWest (280°)18.4 mph27.6 mphMostly Cloudy
4:51 PM43.0 °F16.0 °F34 %29.80 in10.0 miWNW (290°)21.9 mph31.1 mphMostly Cloudy
5:51 PM42.1 °F15.1 °F34 %29.80 in10.0 miWest (270°)17.3 mph24.2 mphMostly Cloudy
6:51 PM41.0 °F16.0 °F36 %29.82 in10.0 miWest (270°)19.6 mph24.2 mphMostly Cloudy
7:51 PM39.9 °F17.1 °F40 %29.85 in10.0 miWest (270°)11.5 mph18.4 mphMostly Cloudy
8:51 PM39.0 °F18.0 °F43 %29.86 in10.0 miWest (260°)13.8 mph20.7 mphPartly Cloudy
9:51 PM37.0 °F21.0 °F52 %29.87 in10.0 miWest (260°)13.8 mphPartly Cloudy
10:51 PM36.0 °F21.0 °F55 %29.88 in10.0 miWest (260°)17.3 mphPartly Cloudy
11:51 PM35.1 °F21.0 °F57 %29.89 in10.0 miWest (270°)15.0 mphScattered Clouds
Hourly data recorded from KEWR, located miles away from Staten Island, New York







STORIES FROM OUR PARTNERS